EHI
45 49 55 59 60 62 65 65 61 54 46 39 29 20 11 6 6 10 14 17 18 17 14 9 6 5 3 2 1 0 0 0 0 0 0 0 0 0 0 0 1 2 2
51 55 62 67 69 68 69 69 66 60 51 43 34 24 15 8 7 10 14 16 17 17 13 7 4 3 2 1 0 1 1 0 0 0 0 0 0 0 0 0 0 1 1
56 60 67 74 76 75 73 71 70 66 57 48 41 33 23 14 11 11 13 15 17 18 13 6 3 3 2 2 1 2 2 1 0 0 0 0 0 0 0 0 0 0 0
57 61 67 73 77 76 72 69 67 64 58 51 46 41 32 21 14 13 13 15 17 18 14 9 6 5 5 4 3 3 3 1 0 0 0 0 0 0 0 0 0 0 0
59 62 66 70 74 74 70 65 61 57 55 52 48 43 34 24 16 13 13 13 13 14 15 12 9 6 6 5 3 2 2 1 0 0 0 0 0 0 0 0 0 0 0
60 61 64 68 72 72 68 62 57 53 51 50 46 40 33 26 19 15 13 11 10 11 12 11 8 5 3 3 1 1 1 1 0 0 0 0 0 0 0 0 0 0 0
60 60 62 66 70 72 67 60 53 50 50 48 44 38 34 30 23 16 13 11 10 10 10 10 8 5 2 1 0 0 0 0 0 0 0 0 0 0 0 0 0 0 0
59 59 60 63 67 69 64 57 51 48 49 47 42 37 34 30 24 17 13 12 12 11 10 9 8 6 3 1 0 0 0 0 0 0 0 0 0 0 0 0 0 0 0
56 57 57 58 60 62 58 53 49 48 48 45 39 36 33 30 26 21 16 13 11 9 9 8 7 7 4 2 1 1 0 0 0 0 0 0 0 0 0 0 0 0 0
51 51 52 51 52 53 51 48 47 46 45 42 38 35 33 31 30 26 20 13 9 8 8 7 6 6 5 4 3 1 1 1 1 0 0 0 0 0 0 0 0 0 0
45 46 47 46 46 47 46 45 46 45 42 39 37 35 33 33 32 27 20 13 10 8 7 6 6 6 5 4 3 2 2 2 1 0 0 0 0 0 0 0 0 0 0
42 44 46 46 44 44 44 45 46 44 41 39 37 34 33 31 28 23 17 13 10 8 7 5 5 5 3 2 2 1 1 1 1 0 0 0 0 0 0 0 0 0 0
42 44 48 46 43 43 45 47 46 44 42 39 36 33 30 26 21 16 13 11 9 7 6 4 4 3 2 2 2 1 0 0 0 0 0 0 0 0 0 0 0 0 0
45 46 47 44 41 43 47 48 45 44 42 38 34 30 26 21 16 12 10 8 7 5 4 3 3 3 3 3 2 1 1 0 0 0 0 0 0 0 0 0 0 0 0
48 48 46 42 41 44 49 47 43 40 39 35 30 26 20 16 13 10 8 6 4 3 3 3 3 3 3 3 3 3 2 1 1 1 1 0 0 0 0 0 0 0 0
49 49 46 43 44 47 49 45 39 37 35 32 26 20 15 13 11 9 8 5 3 3 3 3 3 3 3 3 2 2 2 2 2 2 1 0 0 0 0 0 0 0 0
48 49 48 47 47 47 47 42 37 34 32 28 21 15 13 12 11 9 7 4 2 3 3 3 2 2 2 1 1 1 1 2 2 1 1 0 0 0 0 0 0 0 0
50 51 50 49 48 46 44 42 36 32 29 24 18 14 12 13 11 9 6 4 2 2 2 1 1 1 1 0 0 0 0 1 1 0 0 0 0 0 0 0 0 0 0
53 53 52 50 49 46 43 40 36 31 26 22 18 15 15 14 13 9 6 4 2 1 1 0 0 0 0 0 0 0 0 0 0 0 0 0 0 0 0 0 0 0 0
53 53 51 50 50 46 41 37 33 30 25 21 17 16 15 15 13 10 5 2 0 0 0 0 0 0 0 0 0 0 0 0 0 0 0 0 0 0 0 0 0 0 0
51 49 48 47 46 42 37 33 31 29 25 20 17 13 11 11 12 10 6 2 0 0 0 0 0 0 0 0 0 0 0 0 0 0 0 0 0 0 0 0 0 0 0
44 43 42 42 40 36 33 31 30 28 25 20 14 9 6 7 8 8 6 3 1 0 0 0 0 0 0 0 0 0 0 0 0 0 0 0 0 0 0 0 0 0 0
35 36 36 37 36 33 30 30 30 28 24 19 12 6 3 3 4 4 4 3 2 1 0 0 0 0 0 0 0 0 0 0 0 0 0 0 0 0 0 0 0 0 0
30 31 32 33 32 30 28 29 28 25 21 15 8 4 2 1 1 1 2 2 2 1 0 0 0 0 0 0 0 0 0 0 0 0 0 0 0 0 0 0 0 0 0
25 26 27 28 28 28 27 25 24 21 15 9 4 1 1 0 0 0 1 1 1 0 0 0 0 0 0 0 0 0 0 0 0 0 0 0 0 0 0 0 0 0 0
22 22 23 24 25 26 25 22 20 17 10 4 1 0 0 0 0 0 0 0 0 0 0 0 0 0 0 0 0 0 0 0 0 0 0 0 0 0 0 0 0 0 0
Wind_Speed
9 10 11 11 10 9 8 8 8 7 5 3 2 2 2 1 1 2 4 4 4 5 4 4 3 3 3 4 4 2 2 2 1 0 2 3 3 4 4 4 5 7 8
8 9 10 11 11 10 9 8 8 7 6 4 3 2 2 2 2 2 1 3 3 4 5 5 4 4 4 4 4 3 2 2 2 2 1 2 4 3 4 3 4 5 4
13 12 11 11 10 10 10 9 7 7 6 5 3 1 1 1 0 1 1 2 2 3 3 5 5 4 4 4 5 4 4 3 2 3 4 3 3 3 3 2 3 3 3
11 10 10 10 12 11 9 8 7 7 6 6 4 4 3 3 3 2 2 2 3 3 4 4 5 5 4 4 5 5 4 4 3 2 2 3 3 2 2 3 2 1 2
12 12 11 11 10 9 8 7 6 6 6 6 6 5 3 3 2 1 1 2 3 3 4 4 4 4 4 4 4 4 4 4 4 3 2 2 2 3 2 3 3 2 2
12 12 10 8 7 7 7 7 6 5 6 6 5 5 5 3 2 2 2 2 2 3 3 3 3 3 3 4 4 4 4 4 4 3 3 3 3 3 3 4 3 2 2
11 10 10 9 9 9 8 7 7 6 5 5 5 5 5 4 4 3 3 2 2 2 3 3 3 3 4 4 3 3 4 4 4 4 3 3 3 3 3 3 3 2 2
9 11 11 10 10 10 9 8 8 6 6 5 5 4 4 3 2 2 2 2 2 2 2 2 3 3 3 3 3 3 3 3 3 4 3 2 2 2 2 3 2 2 2
10 10 9 8 8 8 7 8 8 6 6 6 5 4 4 3 3 2 1 1 1 1 1 1 2 2 1 2 2 2 2 1 2 2 2 2 2 2 2 2 3 3 2
9 10 8 8 7 7 6 6 6 6 4 4 4 4 3 3 2 2 1 1 0 1 1 2 2 2 1 1 1 1 0 1 0 0 1 1 1 1 1 1 1 2 3
9 10 9 8 8 7 7 6 6 5 4 4 3 3 2 2 2 1 1 1 1 1 2 2 2 3 3 2 2 2 2 1 1 1 0 1 1 1 1 0 0 0 1
9 9 9 8 7 7 6 6 5 5 4 4 4 3 3 3 3 2 1 1 1 2 2 2 3 3 3 3 3 3 3 2 2 2 2 2 1 1 1 1 1 0 1
9 8 8 7 7 6 6 5 5 5 4 4 5 4 3 3 3 3 2 2 2 2 2 3 3 3 3 3 3 3 4 4 4 4 3 3 3 3 2 2 2 1 2
10 8 7 7 6 6 6 5 5 5 5 5 5 4 4 4 4 3 3 2 2 3 3 3 3 3 3 4 4 5 5 5 5 5 4 4 4 4 3 3 3 2 3
9 9 8 7 6 6 6 6 6 5 5 6 5 4 4 4 4 4 3 3 3 4 4 4 4 4 4 4 5 5 6 5 5 5 5 6 8 9 6 4 3 4 3
9 9 9 8 7 7 7 7 6 5 6 6 5 5 5 5 4 4 4 4 4 4 5 5 5 5 5 8 9 7 6 5 5 5 5 6 7 10 11 12 10 7 4
9 9 9 9 8 8 8 7 7 6 6 6 6 5 5 5 5 5 5 5 4 5 6 6 6 6 7 10 11 11 7 6 5 5 5 5 7 7 6 8 11 11 11
9 8 7 7 7 7 7 7 7 7 7 6 5 5 5 6 5 5 5 5 5 6 6 6 6 6 7 10 11 11 8 7 6 6 5 5 5 6 6 6 7 7 7
8 7 7 8 8 8 8 9 7 6 7 6 5 5 6 6 6 6 5 5 6 6 5 5 6 7 6 8 9 8 6 6 6 6 7 6 6 8 8 7 6 6 5
7 7 7 8 8 7 8 9 7 7 6 6 5 5 5 6 6 6 5 5 5 5 5 6 6 6 5 8 9 7 4 5 5 5 6 9 8 9 8 6 5 5 4
8 8 9 8 7 7 8 8 7 6 6 6 6 6 5 5 6 5 5 5 5 5 6 6 5 5 5 6 8 8 4 4 4 4 4 4 9 9 9 7 5 4 3
8 8 8 6 6 6 8 8 7 6 7 7 7 6 5 5 5 5 5 5 5 6 5 5 5 4 4 6 7 8 7 6 5 3 2 3 8 9 9 7 7 8 6
7 7 8 7 6 6 8 8 7 8 8 8 7 6 6 5 4 5 5 4 4 4 4 4 4 3 3 4 7 8 8 8 5 3 5 7 8 8 7 9 9 7 5
7 7 8 7 6 5 6 7 8 8 9 8 7 6 7 6 5 4 3 3 3 4 4 4 4 3 3 3 3 3 4 6 5 4 5 7 9 8 7 6 6 5 4
6 7 7 7 6 6 6 6 8 9 9 8 7 6 6 6 5 5 4 3 1 2 5 4 4 5 3 1 2 3 2 2 2 3 4 4 4 5 4 4 4 4 5
6 7 7 7 6 7 7 6 7 9 10 8 6 5 5 4 5 5 5 9 6 6 6 6 6 3 4 5 6 6 6 6 6 5 4 3 3 3 3 3 4 4 4
Wind_Direction
188 175 174 173 167 168 168 169 166 172 162 152 156 165 196 208 215 214 208 203 202 199 194 201 206 199 200 208 208 202 220 234 201 156 312 307 266 239 234 218 207 212 214
180 178 175 173 172 174 175 174 173 173 170 168 166 171 177 202 214 226 203 203 203 204 207 202 203 202 206 219 216 202 201 231 183 157 151 319 325 303 249 227 220 220 212
187 184 181 181 175 178 178 179 178 171 172 167 150 141 95 345 281 248 221 227 223 227 223 209 206 207 204 216 220 207 199 215 226 177 162 178 234 291 309 269 238 223 204
182 183 184 183 181 183 178 168 168 169 171 165 162 164 176 204 223 215 218 235 234 234 232 221 213 211 209 216 223 212 205 194 219 224 204 194 179 185 292 314 304 267 218
176 180 187 189 183 176 171 162 161 173 173 170 175 180 196 210 218 210 220 249 256 251 247 234 221 220 216 218 221 213 210 204 207 208 207 215 211 198 198 269 299 318 274
174 174 172 167 162 160 161 156 162 177 178 175 179 186 194 203 209 212 218 249 260 262 261 247 231 226 223 227 223 214 211 215 216 215 204 196 202 205 194 225 250 267 281
169 164 161 163 160 158 162 165 171 178 182 183 184 188 189 191 200 209 217 237 255 266 267 260 243 232 225 222 215 213 221 216 215 217 216 209 218 207 192 204 236 253 277
162 164 169 169 166 167 167 168 173 180 181 188 192 187 184 189 203 208 209 222 232 248 264 269 263 250 228 219 207 210 223 221 223 232 227 220 222 208 195 194 194 252 279
161 164 164 161 161 165 167 169 172 174 177 186 184 180 183 187 196 203 200 218 251 264 297 296 294 280 236 215 191 203 222 216 225 249 256 251 249 229 216 200 189 192 232
162 157 151 152 152 154 147 155 159 167 167 171 176 179 187 189 186 174 171 182 282 0 20 7 1 4 36 72 108 119 132 114 356 290 288 277 283 278 262 212 211 194 198
154 150 151 154 149 145 146 152 156 153 153 160 161 153 156 153 148 143 161 126 61 51 46 36 43 46 49 54 69 71 86 105 64 14 0 308 316 348 339 338 135 150 165
147 143 143 139 138 140 143 147 150 154 156 150 140 132 120 114 110 103 97 91 70 55 58 59 58 50 50 57 65 65 60 70 65 45 43 22 38 41 31 56 68 90 141
137 131 131 134 135 136 136 139 141 142 133 126 121 115 110 108 103 89 85 89 83 68 67 73 74 59 56 66 64 68 64 63 60 56 52 40 53 46 40 52 53 51 61
136 136 135 134 135 135 136 140 132 131 124 117 116 115 117 113 108 99 87 85 88 84 80 75 75 74 69 68 68 69 70 65 58 51 47 46 54 52 46 51 46 60 67
143 145 141 138 139 136 133 132 128 126 123 114 112 114 111 104 97 88 78 73 75 79 79 72 66 67 71 67 72 74 75 68 59 50 47 54 61 59 54 56 47 57 64
148 147 145 144 144 143 139 134 128 124 117 115 115 109 103 97 91 87 80 76 71 72 75 70 77 72 68 67 73 83 75 68 61 54 48 52 50 57 58 61 60 63 74
149 150 150 150 150 149 143 137 129 122 115 113 111 107 106 102 97 95 85 78 73 73 73 71 73 75 72 74 75 76 79 70 59 52 47 52 49 51 55 55 53 50 51
146 149 146 142 141 135 130 124 118 120 119 116 114 110 108 105 99 96 92 85 80 80 79 74 74 75 73 77 79 77 73 68 57 52 52 54 45 50 59 63 58 49 42
144 143 143 138 135 134 132 124 123 125 123 121 118 116 118 116 110 105 100 93 91 84 78 77 76 77 65 72 83 84 80 72 59 53 49 52 57 52 62 66 61 48 34
126 124 124 122 129 139 135 128 131 130 127 125 119 114 117 118 117 115 106 95 94 94 89 79 74 80 74 69 79 84 87 80 67 52 43 48 59 57 60 64 65 55 25
121 119 121 125 135 139 132 128 128 131 128 118 112 109 109 111 114 109 105 106 101 96 88 84 71 65 66 67 74 79 86 92 82 65 45 37 52 57 57 60 62 60 60
118 118 120 120 121 126 127 126 127 128 122 117 114 109 104 108 109 107 107 109 111 103 94 89 75 52 48 60 72 77 80 90 94 82 56 47 54 54 51 52 54 59 62
120 118 120 117 114 121 129 130 133 128 122 116 113 107 95 84 92 107 114 115 114 112 108 103 97 72 47 51 66 76 78 80 82 76 70 61 57 51 46 48 54 55 57
121 120 117 118 117 117 122 130 132 127 121 117 113 107 99 84 69 70 81 101 112 120 120 121 117 105 75 55 50 61 71 71 69 61 54 54 56 54 47 41 40 44 55
121 123 123 125 126 121 120 125 130 126 121 120 116 108 102 101 84 69 54 72 77 155 146 147 144 136 127 155 124 113 91 88 88 75 53 48 45 44 38 35 33 34 39
124 122 121 123 126 128 128 130 132 130 130 129 127 123 119 115 114 110 80 49 57 73 102 128 130 113 119 122 108 102 102 96 95 83 70 62 62 63 59 53 39 32 32